User: anonymous   Login
Location: Unspecified
(0.0000°N, 0.0000°E)
Time: 21:57:01
(UTC+00:00)
Language:

ONEWEB-0209 - Orbit

View from above orbital plane
View from above orbital plane
View from above satellite
View from above satellite

Ground track
Ground track

The orbit is defined by the following mean orbital elements,

1 48215U          26145.40709294 +.00000000 +00000-0 +63171-3 0 00007
2 48215  87.8933 294.2561 0001805 105.1645 254.9685 13.14503687    02
Epoch (UTC): 25 May 2026 09:46:12
Eccentricity: 0.0001805
inclination: 87.8933°
perigee height: 1204 km
apogee height: 1207 km
right ascension of ascending node: 294.2561°
argument of perigee: 105.1645°
revolutions per day: 13.14503687
mean anomaly at epoch: 254.9685°

The dashed part of the orbit path shows where the satellite is in the earth's shadow,  

DLR